Regional Weather Roundup
Issued by NWS

Home | Current Version | Previous Version | Graphics & Text | Print | Product List | Glossary Off
Versions: 1 2 3 4 5 6 7 8 9 10 11 12 13 14 15 16 17 18 19 20 21 22 23 24 25 26 27 28 29 30 31 32 33 34 35 36 37 38 39 40 41 42 43 44 45 46 47 48 49 50

394
ASUS45 KBOI 251210
RWRID

IDAHO REGIONAL WEATHER ROUNDUP
NATIONAL WEATHER SERVICE BOISE ID
600 AM MDT SAT MAR 25 2017

NOTE: "FAIR" INDICATES FEW OR NO CLOUDS BELOW 12000 FEET
WITH NO SIGNIFICANT WEATHER AND/OR OBSTRUCTIONS TO VISIBILITY

IDZ012-014-251300-
SOUTHWEST IDAHO


CITY           SKY/WX    TMP DP  RH WIND       PRES   REMARKS
BOISE          MOCLDY    38  36  92 S3        30.08S
CALDWELL       MOCLDY    38  37  97 CALM      30.09S
MOUNTAIN HOME  CLOUDY    37  37 100 N5        30.08R WCI  33
$$

IDZ016-017-251300-
SOUTHCENTRAL IDAHO


CITY           SKY/WX    TMP DP  RH WIND       PRES   REMARKS
BURLEY         CLOUDY    41  36  82 SW10      30.05S
JEROME         CLOUDY    40  39  97 S7        30.06S
TWIN FALLS     CLOUDY    39  35  86 SW9       30.07S WCI  33
$$

IDZ019>023-251300-
SOUTHEAST IDAHO


CITY           SKY/WX    TMP DP  RH WIND       PRES   REMARKS
IDAHO FALLS    CLOUDY    41  38  89 S16       30.02S
POCATELLO      CLOUDY    41  37  86 SW12      30.05S
REXBURG        CLOUDY    41  36  82 S14       30.02R
$$

IDZ006-010-011-018-031-032-251300-
CENTRAL IDAHO MOUNTAINS


CITY           SKY/WX    TMP DP  RH WIND       PRES   REMARKS
MCCALL         FOG       30  28  92 CALM      30.03R VSB 1/2
HAILEY         CLOUDY    34  32  93 NW6       30.05R WCI  29
STANLEY          N/A     30  28  92 SE5       30.03F WCI  25
SALMON         CLOUDY    37  30  75 CALM      30.05R
CHALLIS        CLOUDY    34  28  79 NE6       30.02R WCI  29
$$

IDZ002-004-006-007-026-251300-
NORTHERN IDAHO


CITY           SKY/WX    TMP DP  RH WIND       PRES   REMARKS
LEWISTON       CLOUDY    42  37  82 CALM      30.08R
LOWELL           N/A     40  38  93 N3        30.12R
COEUR D`ALENE  LGT RAIN  41  37  86 S7        30.02R
MULLAN PASS    LGT SNOW  28  27  96 SW8       29.95S FOG     WCI  20
$$




USA.gov is the U.S. government's official web portal to all federal, state and local government web resources and services.